Theta_e
305 305 305 304 305 305 306 305 305 303 302 303 301 306 298 298 296 305 305 307 306 300 294 295 291 291 292 295 295 296 295 294 296 295 297 295 297 295 294 293 291 292 290 288 287 288 285 288 288 290 290 291 294 296 297 298 295 295 293 293 294 294 286 283 284 288 290 292 293 294 293 292 289 290 290 289 285 287 285 284 286 282 282 280 280 277 282
305 305 304 304 304 305 306 306 305 304 302 303 304 302 297 297 298 299 304 307 306 295 285 287 287 291 294 294 294 296 294 294 294 294 295 295 295 293 293 294 296 291 295 291 286 289 282 290 290 289 292 291 298 297 296 297 294 293 294 289 294 286 287 285 281 280 283 285 288 288 291 290 287 287 289 290 289 289 289 289 289 281 282 282 280 275 282
305 305 305 304 304 305 305 305 305 303 303 304 304 297 296 297 299 297 300 304 300 291 292 290 288 290 291 291 292 292 295 296 294 294 294 297 295 295 293 294 295 292 293 290 292 291 287 284 292 292 292 292 297 297 297 298 295 296 297 296 298 288 286 284 278 275 273 273 274 277 279 282 286 288 289 289 288 287 285 281 283 278 282 283 280 280 287
306 305 305 304 304 304 305 305 304 303 303 302 305 300 300 295 288 295 297 298 298 296 297 293 291 290 289 288 291 292 292 295 296 295 295 297 297 296 295 295 296 292 291 287 285 285 291 288 288 291 290 293 295 297 297 296 296 297 298 298 296 287 288 286 284 280 279 282 284 287 288 285 281 284 286 287 288 288 287 285 282 279 283 282 284 284 286
306 305 304 304 304 305 305 305 303 302 302 301 302 302 298 298 290 288 286 295 295 293 293 291 292 288 291 286 291 289 291 294 295 296 292 297 295 294 294 294 291 290 288 285 284 287 288 291 290 289 290 293 294 297 297 297 297 298 297 299 292 288 284 285 285 284 285 286 286 287 287 283 285 284 284 286 286 287 285 282 280 287 284 279 286 288 285
306 305 305 304 304 304 305 304 303 302 302 302 305 297 298 291 292 295 293 288 286 287 288 291 290 291 291 290 292 290 290 292 288 294 296 296 297 292 293 294 293 291 287 285 282 285 285 287 285 290 292 291 293 293 297 295 298 297 296 299 292 288 283 286 286 284 286 287 286 287 286 285 285 285 285 284 285 285 283 284 286 287 282 280 287 289 287
306 305 305 304 304 304 305 304 303 302 302 303 305 297 298 296 295 294 296 290 291 290 290 291 290 290 290 289 291 289 290 290 292 290 291 293 294 296 286 290 293 292 291 287 283 285 281 283 289 288 288 288 289 288 292 296 297 296 295 296 294 288 285 287 286 285 285 286 287 288 286 286 286 286 286 286 286 285 286 287 288 288 287 288 288 289 288
306 305 304 304 304 304 305 304 303 302 301 305 302 298 294 291 291 291 296 295 293 293 292 291 291 290 289 286 290 289 290 289 291 292 290 285 291 296 292 292 293 293 292 290 285 287 288 287 284 289 288 287 289 288 290 291 296 296 293 293 294 289 286 288 286 284 284 287 289 289 289 288 287 289 289 288 287 288 288 288 288 289 288 289 289 288 288
306 306 305 304 304 304 305 304 303 302 302 302 300 297 299 298 299 297 291 290 292 293 293 291 289 288 290 288 290 289 290 289 290 290 294 291 290 293 291 293 292 294 295 294 293 294 292 291 290 291 290 285 291 288 290 295 290 292 292 291 291 290 286 289 286 282 283 287 288 290 290 290 288 287 289 289 288 286 288 286 289 288 286 288 288 286 286
307 306 305 304 304 304 305 303 303 302 303 303 300 295 301 301 300 298 294 290 291 290 292 293 291 286 289 288 289 288 289 290 290 286 293 295 295 295 294 294 293 293 294 293 294 294 293 292 293 293 295 296 296 295 293 293 290 290 290 293 288 289 287 285 285 282 283 287 289 288 288 287 284 284 288 289 289 290 291 292 292 291 292 288 284 285 292
307 306 305 304 304 303 304 303 302 302 304 300 298 297 298 295 294 295 295 290 292 291 291 291 289 289 290 291 290 291 291 291 291 286 287 294 296 298 296 294 292 291 292 295 297 297 296 297 297 297 297 297 297 297 295 294 294 292 289 287 289 291 288 285 287 281 283 288 290 289 285 279 281 293 295 293 290 289 288 289 291 293 294 291 293 293 296
308 306 305 304 304 303 304 303 303 302 302 302 302 298 299 300 299 297 293 288 289 294 291 289 289 290 290 291 290 290 290 291 291 293 289 292 294 296 296 296 294 288 299 300 298 297 297 300 301 301 299 299 298 297 296 293 293 295 294 288 288 288 288 286 287 283 284 289 289 283 277 281 292 297 297 296 294 292 290 291 291 292 293 293 292 292 293
308 307 306 305 304 303 303 304 302 302 302 304 302 297 300 301 298 295 293 290 288 291 288 290 292 291 292 292 291 292 292 293 294 293 293 292 293 295 297 296 294 296 300 297 296 294 293 292 295 297 297 299 298 297 295 294 294 296 296 296 291 288 288 287 286 287 287 285 285 277 280 290 294 296 296 297 294 293 291 288 290 291 291 291 290 291 293
308 307 306 305 304 303 303 304 302 302 301 303 301 300 300 300 296 295 293 288 288 293 293 292 292 291 291 291 291 292 293 294 295 296 293 296 294 295 298 298 299 300 299 298 294 295 291 293 290 292 292 294 293 292 294 296 297 296 297 296 294 292 290 288 285 290 282 284 284 284 291 290 292 292 292 292 288 289 287 283 288 293 294 294 293 293 294
308 307 306 305 304 304 303 304 303 301 303 302 303 301 300 300 299 296 296 293 286 290 294 286 289 290 291 292 292 290 292 293 293 293 296 298 296 297 298 299 301 299 300 295 293 295 291 291 287 286 288 286 281 284 293 292 296 298 298 297 296 294 289 291 286 285 288 284 283 284 284 281 286 294 297 300 299 299 295 289 286 295 296 297 294 293 295
308 308 307 305 305 304 303 304 303 301 303 302 303 300 301 302 302 299 296 292 289 286 291 294 293 292 291 291 293 290 289 289 291 292 295 298 297 298 299 300 300 301 299 298 297 292 291 287 284 285 282 283 287 286 285 291 291 296 297 297 296 296 295 292 287 285 286 285 282 282 280 283 289 289 296 298 301 300 299 290 284 297 299 299 298 296 297
308 308 307 306 305 304 303 304 304 301 302 302 301 300 300 303 301 298 295 293 291 287 296 296 296 294 292 292 294 292 292 289 290 287 287 291 294 295 298 298 300 301 299 298 296 292 289 287 288 286 287 289 284 283 288 288 286 288 294 296 296 294 292 289 287 286 287 285 284 282 285 284 290 293 297 302 304 302 295 282 285 298 302 303 302 302 303
308 308 307 306 305 304 304 304 304 302 301 301 303 300 299 303 303 301 296 293 289 290 296 297 294 291 290 291 290 293 294 294 293 293 291 293 295 295 295 296 295 300 302 295 294 290 288 287 284 284 284 292 291 290 282 285 283 285 285 288 289 290 290 290 286 287 287 285 286 287 287 289 295 298 301 304 305 299 286 282 289 301 303 307 307 306 307
308 308 307 306 305 305 304 304 304 303 302 301 303 301 300 303 303 301 296 292 291 287 296 299 298 295 296 297 294 294 293 292 291 288 289 291 294 295 296 296 296 292 298 293 294 289 287 287 291 288 285 288 291 284 287 285 284 288 289 285 287 288 288 290 290 288 286 286 284 286 288 293 297 300 302 303 298 287 285 297 305 305 304 307 307 306 307
308 308 307 306 305 305 304 304 304 304 303 301 302 298 299 302 303 302 295 291 291 289 293 295 297 294 297 294 292 292 294 294 293 290 290 288 296 296 296 292 297 298 295 295 289 291 288 285 287 289 286 286 288 290 287 288 290 285 285 288 286 286 284 286 287 289 290 289 286 285 281 290 301 299 300 302 290 293 301 305 307 308 307 307 308 309 309
307 308 307 306 306 305 304 304 304 304 303 302 301 300 298 303 302 303 301 297 291 286 292 298 297 296 297 296 297 296 294 292 295 292 294 293 296 294 287 285 291 293 289 289 285 287 288 285 287 286 290 288 290 289 285 286 287 294 291 287 286 291 285 285 287 292 284 285 283 282 288 295 300 297 290 296 299 302 305 306 305 308 309 308 307 310 311
307 307 307 306 306 305 305 304 304 304 304 303 301 302 298 301 302 302 302 300 292 289 293 297 298 297 299 299 300 300 298 297 298 298 294 291 296 294 293 294 294 294 294 295 292 290 291 289 292 289 286 288 294 287 289 286 283 289 296 292 283 291 285 289 284 292 288 285 287 293 298 299 301 300 299 300 302 304 305 306 306 306 308 311 309 310 312
307 307 307 307 306 306 305 304 304 304 304 303 302 301 297 299 300 303 301 294 296 296 298 298 299 299 300 301 302 302 302 302 301 300 299 294 291 295 295 295 296 297 297 297 291 290 291 290 287 291 289 292 289 288 290 289 286 288 286 293 290 294 296 297 294 292 298 298 297 298 300 300 300 303 303 301 302 304 306 306 304 306 308 310 309 312 312
307 307 307 307 306 306 305 305 304 304 304 304 303 302 299 300 300 300 298 296 293 289 295 298 295 293 296 297 300 302 301 301 301 302 303 300 291 293 299 299 298 297 296 295 296 291 292 291 292 293 288 293 296 289 285 285 286 290 289 288 291 295 296 294 290 293 291 286 294 294 296 299 299 300 302 302 302 303 305 305 305 306 307 308 311 312 314
307 307 307 307 306 306 305 305 304 304 304 303 303 304 303 301 302 300 296 289 290 289 285 290 294 298 299 300 301 300 301 303 304 303 302 301 298 294 294 299 300 294 293 295 298 295 294 289 293 292 287 295 298 288 294 289 287 293 286 288 289 289 298 291 291 291 288 288 293 295 298 301 299 300 299 299 300 302 305 305 306 306 307 308 310 313 314
307 307 307 306 306 306 305 305 304 304 304 304 304 302 300 299 302 303 299 297 296 292 286 287 294 301 302 300 299 301 303 303 302 302 301 301 302 301 300 301 300 301 298 297 296 293 293 292 293 292 291 291 300 291 290 294 292 295 290 288 294 294 297 287 292 290 292 295 294 294 296 298 297 299 300 300 301 301 302 304 305 306 306 307 310 313 314
307 307 307 306 306 305 305 305 305 304 304 304 304 304 303 302 304 300 297 296 292 289 290 289 295 298 300 298 301 302 301 301 302 301 301 301 301 301 300 298 296 297 296 294 295 294 294 293 293 293 297 296 299 296 296 293 294 289 288 293 296 294 288 293 292 287 286 285 289 293 287 287 293 297 300 300 302 302 302 303 303 304 304 306 308 310 313
307 307 306 306 306 305 305 305 305 304 304 304 304 304 305 302 303 303 303 301 295 288 289 289 291 296 300 298 300 300 300 301 301 300 300 300 301 300 299 298 298 296 295 293 291 293 294 293 296 295 299 300 298 292 298 297 296 292 290 293 296 292 292 292 286 286 285 291 295 296 295 294 296 298 301 302 303 304 302 302 302 303 304 306 308 308 310
306 306 306 306 306 305 305 305 304 304 304 304 305 303 301 302 304 304 303 304 301 295 292 292 295 296 291 297 301 301 302 302 301 301 300 299 300 300 299 299 298 298 297 294 292 291 292 295 295 296 297 301 299 292 295 288 288 285 290 295 296 298 300 297 295 295 294 296 296 298 296 294 297 300 302 303 304 304 304 304 303 303 305 306 308 309 309
306 306 306 306 305 305 305 305 304 304 304 304 302 299 295 297 302 302 302 302 301 297 289 287 287 292 301 300 300 301 301 302 302 302 300 300 299 299 299 299 300 300 298 294 294 292 296 296 295 302 304 307 299 294 291 291 288 290 296 297 297 298 299 300 300 297 295 299 300 300 300 300 302 303 303 303 305 304 303 303 303 304 305 307 307 309 310
306 306 306 306 305 305 304 304 304 304 303 302 299 293 291 289 297 302 301 303 303 297 291 290 287 293 293 301 300 299 301 301 302 303 303 302 301 301 301 301 301 299 294 295 295 295 295 295 297 301 304 304 299 294 291 290 288 290 295 297 297 297 297 298 300 301 301 301 302 302 301 301 303 304 301 302 303 304 304 305 305 305 306 306 307 308 309
306 306 306 305 305 305 304 304 304 304 304 300 298 297 297 298 301 302 303 303 302 297 290 287 289 291 291 296 302 303 301 302 302 303 304 304 302 302 301 300 300 300 296 295 296 295 296 297 295 301 301 301 300 296 294 291 288 290 297 297 298 298 299 299 299 300 301 301 300 297 296 297 299 297 297 302 304 306 305 304 306 306 305 307 308 308 308
306 306 305 305 305 304 304 304 304 304 303 304 304 302 303 300 303 303 303 303 300 295 294 289 286 289 289 296 301 302 301 303 304 304 303 306 304 302 300 301 301 300 301 295 294 295 301 297 296 298 300 305 294 294 294 291 292 298 298 298 299 299 299 300 300 300 300 301 300 296 294 295 298 301 302 303 303 304 304 305 306 308 306 305 304 305 306
306 305 305 305 305 304 304 304 304 302 301 301 299 301 304 303 302 302 304 302 297 297 294 289 286 288 290 300 297 301 301 298 300 301 296 304 305 304 299 300 302 295 298 296 299 298 301 300 297 296 301 295 298 294 289 294 298 298 299 299 300 301 301 300 300 299 299 300 301 301 300 300 302 302 302 302 302 304 305 305 305 305 304 303 303 305 306
305 305 305 305 304 304 304 303 303 301 298 299 300 305 304 300 302 302 302 300 293 290 289 290 290 288 290 291 290 296 301 300 297 300 296 301 305 302 302 298 297 295 298 304 297 298 297 297 302 296 293 299 293 289 290 294 296 298 299 299 300 301 301 299 299 300 300 300 300 300 301 301 300 299 299 301 301 302 303 303 304 303 302 302 303 305 307
304 304 304 304 304 304 303 301 301 299 297 299 301 302 301 302 301 304 304 303 299 292 289 289 290 289 290 287 287 293 301 299 301 302 301 299 302 303 301 298 293 297 303 297 296 302 294 302 298 293 296 291 289 292 294 297 297 298 298 298 300 300 300 300 300 301 301 300 300 301 301 300 299 299 300 300 301 302 302 302 303 303 302 302 303 305 306
304 304 304 303 302 300 297 297 300 300 301 304 303 303 302 303 303 303 300 298 301 301 293 290 289 291 293 290 292 294 299 292 299 297 300 295 294 298 297 295 292 294 295 295 294 294 298 305 297 292 291 289 291 298 299 299 299 298 298 300 301 302 302 303 303 302 300 299 299 299 300 299 299 299 299 299 300 302 301 301 302 302 301 302 303 303 305
303 303 302 298 296 291 291 293 298 302 302 301 302 300 300 300 293 293 293 291 295 296 293 293 288 295 297 293 289 298 298 294 299 294 295 298 295 294 295 294 293 293 289 291 294 301 298 296 294 292 290 297 298 299 299 300 301 302 301 302 302 303 304 304 304 302 299 297 297 297 298 298 298 299 299 299 300 301 301 302 303 303 303 303 304 305 306
302 300 299 297 295 291 292 298 304 302 303 303 303 295 292 295 292 289 289 291 291 288 292 292 291 296 294 293 295 303 296 292 293 296 292 299 293 290 294 290 294 293 290 289 293 302 292 293 293 292 290 294 295 298 301 301 302 304 305 305 304 305 305 304 304 302 301 299 299 299 298 297 298 298 300 300 301 302 302 302 302 302 303 303 304 304 306
298 295 293 293 292 294 302 303 303 302 302 295 295 293 289 292 288 286 291 288 288 291 293 290 297 297 297 294 292 292 302 296 291 291 293 295 301 291 293 294 294 291 286 287 290 300 292 289 291 291 289 294 295 299 300 301 301 303 305 305 305 306 306 305 304 305 304 304 304 302 302 301 302 301 300 300 300 300 301 301 302 303 303 303 302 304 304
298 298 296 293 297 300 301 303 304 302 296 291 291 290 289 286 291 290 289 287 288 290 295 296 296 294 296 296 296 291 301 301 301 300 297 292 300 298 292 289 295 288 287 287 293 296 294 291 290 288 288 294 297 300 301 301 301 303 304 305 306 306 306 306 304 304 303 303 303 302 302 302 302 302 301 301 301 301 302 302 302 303 303 304 303 304 306
299 299 300 301 300 301 300 299 296 292 291 292 287 284 287 288 289 288 290 287 287 291 294 295 293 294 295 297 297 298 296 302 299 296 294 290 294 292 290 292 293 287 285 291 297 294 292 286 287 287 293 296 299 300 300 300 301 302 304 305 305 306 306 306 304 304 304 302 302 302 302 303 302 302 302 301 301 302 302 302 303 303 303 304 304 304 306
302 302 302 298 295 294 295 291 292 291 285 284 282 281 285 282 285 286 287 291 296 293 294 300 298 300 300 300 298 300 297 302 295 294 293 290 295 293 290 289 289 285 288 295 292 289 287 286 286 289 295 297 299 300 300 301 301 302 303 304 305 306 306 306 305 304 304 303 303 303 302 302 302 303 303 302 301 302 302 302 302 303 303 304 303 304 304
301 300 295 293 290 289 291 282 292 288 284 286 283 280 283 282 285 286 286 289 293 292 297 295 296 294 290 298 295 294 296 297 295 295 294 295 292 289 288 286 287 292 297 290 289 286 287 289 290 292 296 298 299 299 300 301 301 301 302 303 304 305 306 306 306 304 304 304 304 304 303 303 303 303 304 303 302 301 301 302 303 303 304 304 304 304 305
293 290 289 288 286 288 287 281 291 287 282 284 286 286 285 283 287 288 289 293 296 293 297 297 296 295 292 298 297 295 294 291 296 291 288 291 289 290 287 287 290 292 288 286 287 288 288 287 294 296 296 296 298 299 299 300 302 301 301 302 302 303 304 305 305 305 304 304 304 304 303 303 303 303 303 303 303 304 303 302 303 303 303 304 304 304 305
289 289 288 283 280 285 286 283 285 282 287 289 288 290 290 290 291 291 295 296 296 295 294 295 296 295 293 296 291 291 294 293 291 291 292 291 287 286 290 293 292 287 286 286 284 283 286 290 294 295 296 297 297 298 299 300 301 302 302 300 301 302 303 304 305 305 305 305 304 303 303 304 303 303 303 303 303 303 303 304 304 303 303 303 304 304 304
289 290 289 288 284 286 288 284 285 289 291 292 293 294 293 293 294 295 296 296 294 297 296 296 296 295 292 292 292 293 293 293 289 291 293 288 286 289 292 288 283 285 282 281 283 286 288 293 295 295 296 296 297 299 299 300 301 301 301 302 302 303 303 304 305 305 305 305 305 304 304 304 304 304 304 303 303 303 303 304 305 305 304 303 304 305 305
288 290 289 283 282 286 284 288 294 293 293 293 294 294 295 295 293 292 296 296 296 296 295 295 294 295 293 297 295 290 291 292 288 290 291 289 291 288 286 285 285 286 287 285 286 290 294 295 294 294 297 298 299 298 299 300 300 301 301 302 303 303 303 304 304 304 305 305 305 305 305 305 304 303 303 304 303 303 304 305 305 305 305 305 305 305 305
291 288 287 286 288 288 289 293 292 290 293 294 294 293 293 292 291 294 297 297 295 295 296 295 293 292 289 292 290 289 287 291 285 286 290 289 285 281 282 280 282 282 287 290 292 293 295 296 296 297 298 297 298 299 299 300 300 301 301 302 303 303 303 303 304 304 305 304 305 304 305 305 305 304 304 303 302 303 305 305 305 305 305 304 304 304 304
288 288 288 287 287 288 291 292 291 289 292 293 292 292 293 292 292 294 297 295 296 296 296 296 295 291 290 289 286 288 287 290 288 289 287 284 285 286 285 281 284 285 287 293 293 295 296 298 298 297 297 297 298 298 299 300 299 300 302 303 303 303 303 304 304 304 304 304 304 304 304 304 303 303 303 303 304 305 304 304 304 304 305 305 305 305 304
290 288 289 293 290 289 290 286 288 288 290 291 292 292 293 292 293 294 297 296 296 295 292 290 290 289 288 287 286 282 285 290 287 286 286 285 288 286 284 283 286 290 292 295 296 297 297 298 298 297 297 297 298 298 299 300 301 301 302 302 302 303 303 304 303 303 303 303 303 297 303 303 304 304 304 305 305 304 303 303 304 305 305 305 305 305 305
287 286 288 292 294 293 293 293 292 291 291 291 291 293 293 292 294 296 297 296 296 291 290 292 289 287 285 283 286 289 290 288 286 286 284 288 290 286 285 288 291 294 294 294 296 297 297 299 299 297 298 297 296 298 299 301 301 301 301 302 302 302 302 302 302 302 302 302 302 302 302 303 303 303 303 303 303 303 302 302 303 305 305 305 305 306 306
Wind_Speed
15 16 18 19 19 21 22 24 22 22 24 10 9 7 3 5 4 2 9 11 9 7 1 2 2 3 5 6 3 3 4 5 6 7 3 6 1 4 4 7 7 3 0 1 3 4 5 10 7 7 9 11 11 9 8 7 9 8 8 9 7 5 6 9 12 11 13 14 13 10 11 12 15 16 16 14 16 16 15 14 10 11 12 13 14 16 13
14 15 17 18 19 20 21 22 21 20 18 9 9 5 3 2 3 0 7 11 8 5 4 4 4 3 5 4 4 2 4 4 8 5 6 4 5 6 6 6 2 7 6 6 4 4 6 2 6 8 7 7 7 10 10 7 8 7 2 4 4 7 5 8 9 8 8 9 7 10 10 11 13 13 15 18 18 19 18 16 13 13 17 18 14 17 12
13 14 15 16 17 18 19 21 19 19 17 10 5 5 3 2 3 3 3 8 8 5 4 5 4 4 7 6 4 6 2 4 5 8 8 4 6 7 5 7 9 8 7 8 10 11 7 8 9 11 10 10 9 11 10 7 9 10 9 9 3 8 5 5 8 10 12 8 6 8 11 14 7 13 18 20 22 22 15 15 13 15 18 22 16 15 15
12 12 14 15 15 17 18 18 18 20 18 14 5 4 4 4 3 4 1 4 4 6 3 3 4 4 6 4 3 6 5 2 3 5 8 5 6 8 10 9 7 6 8 8 6 6 7 8 5 7 10 10 7 5 8 9 11 11 11 8 3 3 5 10 12 12 13 13 12 4 2 4 9 12 17 20 22 22 20 14 12 18 16 13 19 19 18
10 11 13 14 14 15 16 16 18 20 20 14 5 2 2 1 3 3 6 3 3 4 4 6 5 4 5 4 7 5 6 8 5 3 5 3 6 8 6 6 7 8 10 7 9 7 9 9 14 14 15 12 12 13 13 13 14 15 12 8 7 4 7 12 15 17 17 16 15 9 5 10 13 15 15 17 19 20 21 19 22 16 10 16 18 22 21
10 10 11 12 13 15 16 16 17 20 21 16 5 3 5 2 2 1 2 3 5 6 3 7 5 3 4 4 5 7 9 9 8 6 4 7 7 6 3 4 8 10 5 6 8 7 10 11 8 6 8 10 10 13 10 12 12 7 7 7 6 4 7 5 11 17 18 17 15 17 15 14 16 17 18 19 21 20 20 24 25 18 15 21 18 12 18
9 9 10 11 12 13 14 15 17 20 21 15 6 3 3 2 1 2 1 2 4 3 5 7 6 3 2 4 4 10 10 9 8 6 8 8 4 6 7 11 13 13 10 6 7 9 8 6 5 7 11 9 11 11 13 7 2 5 7 6 6 2 8 8 7 12 14 14 16 20 20 20 19 19 20 20 20 23 25 25 25 26 26 25 22 21 23
7 7 9 10 11 12 13 13 16 18 21 12 4 7 4 3 3 1 1 3 3 2 4 4 5 2 1 3 4 7 9 11 10 6 4 6 7 5 9 13 16 16 14 9 9 11 11 14 14 10 9 13 9 10 10 9 7 6 8 6 7 7 4 6 2 7 14 12 11 13 14 12 13 11 12 17 17 18 22 22 23 24 24 26 27 25 24
6 5 7 8 10 11 12 12 14 17 18 3 5 6 5 2 3 2 3 2 2 4 3 4 4 2 0 4 5 8 7 9 11 13 8 10 7 8 11 13 17 15 14 14 14 13 15 17 18 19 18 14 9 4 4 4 6 6 6 3 4 10 6 5 4 7 12 4 7 9 9 9 10 10 10 13 16 16 17 17 19 18 21 22 22 21 19
6 5 5 6 8 9 10 10 11 14 16 3 3 4 2 1 3 1 2 2 2 4 2 3 4 2 5 3 6 5 8 9 10 10 3 6 8 10 11 13 14 15 14 16 17 19 19 19 18 16 15 13 14 13 16 13 10 4 4 2 3 5 3 5 6 10 12 7 9 8 9 10 10 8 8 11 14 15 14 17 18 20 20 15 15 19 19
6 5 4 4 6 7 8 7 8 12 8 6 4 3 3 3 2 2 2 4 1 3 5 1 5 2 5 3 9 7 9 8 7 6 5 6 6 5 10 13 12 12 14 16 16 15 18 20 20 14 13 13 12 10 10 14 14 13 6 1 4 8 8 7 4 5 10 12 9 8 8 7 6 4 8 7 11 14 15 14 17 18 17 14 14 15 13
8 6 5 3 4 4 5 5 4 6 8 5 3 3 2 2 2 2 2 4 3 2 4 3 5 4 6 8 8 10 11 9 8 6 12 12 17 15 12 10 9 10 12 17 18 17 19 15 12 9 8 7 8 7 8 11 12 11 10 8 8 10 7 8 5 4 8 10 9 7 7 3 8 8 7 6 10 11 14 11 11 12 15 17 17 18 18
9 8 6 4 3 3 3 3 3 2 6 4 2 2 2 1 2 3 2 2 4 6 5 5 5 6 6 8 9 10 11 12 11 11 12 13 16 12 7 8 11 14 17 19 20 16 13 9 12 7 2 6 3 5 8 10 12 11 10 10 8 5 6 5 3 5 7 6 4 5 4 4 2 8 8 2 3 5 7 11 13 12 13 14 17 20 20
10 9 8 7 5 2 2 1 2 4 1 5 2 2 1 1 3 2 3 2 4 4 5 7 2 7 9 10 9 11 11 10 9 9 10 8 11 13 10 7 10 13 14 13 12 11 9 7 9 9 11 4 4 2 4 5 6 7 6 5 9 9 5 3 5 3 5 7 7 8 10 7 5 3 5 2 3 6 7 7 9 10 13 15 16 18 18
11 10 10 9 7 5 3 1 1 3 5 4 2 2 2 2 1 2 2 2 4 7 4 4 8 10 10 9 8 9 6 8 9 4 6 7 8 8 9 11 12 13 13 10 7 8 5 8 9 12 10 13 9 7 8 8 5 3 2 3 5 8 6 3 4 2 3 7 9 7 5 5 4 7 12 6 4 5 8 8 14 12 11 9 11 14 15
11 11 11 11 9 7 5 5 3 4 6 5 1 1 1 1 1 2 1 2 3 4 4 5 6 8 8 7 6 6 7 7 8 10 5 4 4 7 7 8 12 12 10 6 4 6 8 9 9 10 10 9 7 5 5 11 8 3 3 4 3 6 8 6 4 5 6 7 6 5 4 3 3 8 11 14 7 3 4 5 11 4 9 14 15 19 16
11 11 12 12 11 9 7 6 5 4 7 6 2 0 1 2 3 1 2 2 3 5 7 5 4 5 7 6 3 2 5 5 7 6 6 7 10 11 9 11 11 7 9 8 8 7 9 9 6 6 6 7 7 6 9 7 11 11 12 7 6 2 3 3 5 6 3 6 6 7 2 3 9 13 13 13 1 5 4 5 1 3 5 6 8 9 6
11 10 12 13 12 10 9 7 6 5 5 6 3 0 1 3 3 2 3 3 4 6 3 1 4 5 5 6 7 6 5 5 4 4 6 10 10 9 12 10 11 5 9 9 9 7 9 8 10 8 8 7 6 6 8 9 7 9 10 14 6 7 6 3 6 7 5 4 7 2 1 1 7 15 21 9 2 4 3 5 7 11 14 10 9 11 8
11 10 12 13 13 12 10 8 8 7 6 6 2 1 2 2 3 3 2 3 3 4 1 1 5 8 8 6 7 7 5 5 5 5 6 5 4 13 17 6 4 6 12 9 8 7 8 8 6 3 5 9 7 8 6 9 9 9 10 11 5 9 8 3 5 7 8 5 6 4 1 2 6 15 17 12 7 3 9 9 11 12 14 13 11 11 10
10 10 11 14 14 13 11 9 9 8 6 7 1 1 1 2 3 4 4 4 3 9 10 11 7 10 5 7 6 5 4 5 5 5 5 6 9 16 8 3 3 9 8 9 7 7 6 9 8 4 6 7 5 3 4 3 1 5 7 9 4 9 7 9 8 7 5 5 8 7 7 3 18 20 6 4 6 7 10 13 16 12 13 13 14 12 10
9 9 11 14 14 13 12 10 9 9 7 8 5 2 1 3 2 3 4 4 4 7 4 2 3 8 8 9 10 10 9 8 5 5 5 7 7 8 6 5 9 8 8 8 7 7 6 7 8 4 4 4 6 5 12 9 2 2 9 7 3 11 6 6 4 5 7 7 9 6 5 12 14 14 8 12 12 13 13 12 14 16 12 12 11 11 11
9 9 10 14 14 14 13 11 10 9 9 6 6 2 2 1 2 3 4 4 6 7 7 10 11 12 13 12 11 10 11 13 12 8 8 6 4 6 4 6 6 5 5 5 5 3 5 4 5 5 5 5 3 7 10 10 13 12 7 7 4 10 4 6 7 6 4 5 5 9 9 10 9 10 10 12 14 15 15 12 12 13 14 13 10 12 12
8 8 11 15 16 15 13 12 10 9 9 8 6 3 3 3 2 1 3 6 7 10 12 12 10 12 11 12 12 12 12 11 11 10 8 7 5 4 4 5 5 3 3 3 4 5 7 7 5 5 6 6 8 7 6 6 7 11 12 8 2 8 11 10 5 8 7 5 13 12 11 14 16 13 12 14 18 18 16 15 13 14 12 11 10 11 11
8 9 12 16 16 15 13 12 11 9 9 9 6 4 3 2 3 4 5 6 5 8 6 4 4 1 0 1 4 7 9 11 12 10 8 8 5 2 2 3 2 2 1 2 3 6 7 5 4 4 5 8 9 9 12 10 11 12 10 12 10 8 15 11 8 14 8 6 17 18 16 14 17 15 15 15 16 15 14 13 13 12 13 13 12 10 10
8 8 11 15 16 15 14 13 11 10 9 8 7 5 3 4 3 3 4 3 3 4 4 3 5 3 2 3 6 7 8 8 7 10 10 10 11 7 5 7 3 4 5 3 5 7 2 3 4 2 5 6 8 8 8 8 7 11 11 8 11 9 17 5 13 11 8 6 11 14 16 7 16 14 16 19 19 19 17 14 14 15 15 14 13 11 11
7 8 11 13 14 14 13 12 11 9 9 9 6 4 4 4 3 4 3 4 4 4 4 5 2 2 4 7 7 5 2 6 8 10 12 14 13 12 10 7 7 3 5 6 7 5 4 3 3 3 4 4 7 6 7 7 4 5 10 12 11 10 11 9 14 5 6 8 10 20 14 3 19 22 21 17 16 17 18 19 19 19 19 18 16 13 11
8 9 11 13 13 14 13 12 10 9 9 8 6 6 5 5 3 4 4 2 6 2 4 5 7 7 7 12 8 4 5 7 7 9 11 12 12 11 10 9 8 7 7 6 4 4 2 2 3 4 6 5 5 2 5 7 6 8 9 10 10 8 13 11 8 9 14 15 15 18 14 13 19 21 21 21 21 19 19 21 22 21 21 18 15 14 11
8 10 12 14 15 15 13 11 9 8 8 8 6 6 5 6 5 4 5 5 3 4 6 7 8 10 14 13 5 4 6 7 7 8 9 10 11 10 9 9 7 6 4 3 2 2 2 3 4 3 4 4 5 5 6 8 6 9 12 12 12 12 14 11 11 10 10 13 12 11 9 9 12 16 17 17 17 18 21 21 20 19 18 17 14 14 13
8 11 13 15 13 12 12 10 9 8 8 6 5 5 5 4 3 3 4 4 5 5 6 9 10 8 3 4 6 8 6 6 6 7 7 8 9 9 9 8 7 5 4 3 3 4 3 2 2 4 4 4 5 5 7 9 11 13 13 15 15 13 11 11 11 7 5 8 8 10 10 11 14 17 16 15 16 17 17 15 14 17 16 14 13 12 12
10 12 14 15 13 13 12 11 10 8 7 5 3 4 3 3 2 2 3 4 3 2 3 6 4 1 6 5 4 5 6 6 7 8 8 6 7 8 7 7 6 6 4 3 2 2 2 3 1 3 3 3 4 4 5 7 9 10 12 12 13 13 13 11 9 10 9 9 7 8 10 9 9 13 14 15 16 17 15 15 16 18 19 16 15 13 14
11 13 14 14 13 12 11 11 9 9 7 4 3 2 3 2 4 3 5 4 4 3 2 2 7 7 5 2 4 6 8 8 5 4 4 5 5 6 5 5 4 6 4 3 3 2 3 2 1 2 2 3 3 5 7 8 8 8 13 12 12 13 13 12 11 11 11 11 11 9 10 8 8 7 13 17 18 18 16 15 16 14 16 14 16 16 15
12 14 14 13 12 11 11 10 9 10 6 5 4 2 3 4 3 6 5 3 2 3 2 5 4 2 3 2 1 3 8 8 5 3 4 4 4 3 5 5 3 6 3 2 1 2 2 1 1 2 2 1 4 5 7 8 8 8 11 12 11 11 11 12 13 13 13 13 13 11 14 14 14 15 13 17 18 17 17 17 16 16 14 11 13 13 13
13 14 13 12 12 11 10 9 9 7 4 1 8 9 7 3 6 8 6 4 3 1 1 2 3 2 3 2 3 0 6 6 3 4 3 3 2 4 4 4 3 3 4 3 2 1 1 0 1 2 4 2 1 4 7 8 8 9 11 11 11 11 11 11 12 12 13 14 14 14 14 15 15 15 15 16 16 18 18 18 17 14 15 18 18 18 17
13 13 12 12 11 11 10 8 6 4 2 3 4 2 2 10 10 11 5 2 1 1 1 2 4 3 3 2 3 4 5 6 3 5 0 4 1 4 2 4 4 2 5 4 2 2 2 3 1 1 3 3 4 3 6 8 10 11 11 10 11 11 11 11 13 13 13 13 13 12 12 13 13 14 16 17 17 17 17 17 18 19 16 16 17 15 13
14 13 12 11 11 9 9 9 6 5 3 2 2 1 4 6 4 8 8 4 2 0 0 1 1 5 3 1 1 4 5 5 4 5 3 2 2 2 2 2 3 2 3 2 2 1 0 1 2 2 3 3 3 4 3 9 11 11 11 11 12 12 11 12 13 12 12 12 13 12 13 14 14 15 16 18 17 17 18 18 18 17 16 16 18 19 17
13 13 13 12 11 8 6 3 4 3 4 3 3 8 6 7 6 6 7 5 4 3 1 1 2 3 3 4 4 3 7 4 2 4 1 3 3 2 2 1 2 2 2 2 1 2 1 3 3 2 2 1 4 3 6 8 10 11 10 11 11 11 10 11 12 12 11 12 13 13 14 14 15 16 15 16 17 17 17 17 18 18 18 18 18 17 17
15 14 15 13 7 4 4 2 1 4 2 5 8 10 11 9 6 4 3 4 4 3 3 2 3 1 2 3 2 1 5 3 5 4 2 2 2 0 2 2 0 1 2 2 0 1 3 1 2 4 3 2 2 4 7 8 8 9 10 10 10 10 10 9 9 10 12 12 14 13 13 15 15 14 14 15 16 16 17 18 17 17 17 17 16 15 15
17 14 8 5 4 2 2 2 3 6 12 11 10 6 4 5 1 2 1 2 2 2 2 2 4 3 1 3 2 5 4 3 5 3 1 2 2 2 0 1 2 1 2 2 3 2 1 0 2 3 3 4 3 6 9 8 8 7 8 8 9 9 9 9 9 11 12 13 14 14 14 15 15 15 15 16 16 16 15 15 15 15 15 15 15 15 15
13 7 4 3 3 2 0 4 7 12 7 4 3 1 1 0 1 2 2 1 1 2 3 4 3 2 3 4 3 3 3 4 5 2 3 4 3 0 1 1 2 2 1 2 2 2 2 2 1 2 3 5 6 9 9 8 8 7 7 7 7 8 8 9 9 9 10 11 12 13 12 13 14 14 14 14 14 14 14 15 16 16 15 14 14 15 16
7 6 3 3 2 2 4 6 8 7 4 2 1 2 1 1 3 1 2 2 2 2 2 3 3 3 4 4 6 1 2 4 4 3 4 1 2 3 1 2 1 2 2 0 2 4 2 1 1 0 2 5 6 8 8 9 9 8 8 9 10 8 7 7 8 7 8 9 10 11 12 12 12 12 13 13 13 13 13 14 15 15 15 15 14 14 15
6 4 4 2 5 5 5 6 5 4 2 2 1 1 1 2 2 0 1 2 2 1 3 2 2 3 4 4 4 3 3 2 1 2 2 2 2 2 2 1 1 2 1 1 2 1 0 1 1 1 2 4 6 8 8 9 9 9 8 9 10 9 8 7 7 8 9 9 9 9 11 12 13 13 12 13 12 12 13 13 13 14 15 15 16 15 14
5 3 4 7 6 6 5 4 2 2 1 0 1 2 1 1 0 2 2 2 2 2 5 5 3 1 2 5 2 3 0 2 2 1 2 1 1 2 2 1 0 2 1 2 3 1 0 0 1 1 3 4 6 7 8 9 10 10 10 11 11 11 10 7 7 7 7 8 8 10 10 11 12 11 12 12 12 12 11 12 13 13 13 13 14 14 14
11 9 8 6 3 2 1 2 2 1 1 2 1 2 2 3 3 2 2 2 0 2 2 1 3 0 1 2 3 4 2 1 2 0 1 2 1 1 2 1 1 1 2 3 2 1 1 0 0 2 3 4 6 7 7 8 8 9 9 9 10 10 9 7 6 6 5 6 7 8 10 11 11 10 10 11 12 13 12 12 12 11 11 12 13 14 14
6 4 3 1 2 1 1 2 2 1 2 2 3 3 4 3 3 2 2 2 4 3 4 3 2 3 0 4 3 1 2 3 2 2 1 0 2 1 1 1 2 2 1 1 1 1 1 1 1 2 3 3 4 6 7 8 8 8 8 9 10 10 10 8 7 7 6 5 6 7 8 9 11 10 10 10 11 12 11 11 10 11 12 12 13 13 14
4 1 1 1 1 1 1 1 2 2 4 4 3 3 2 2 1 5 1 3 2 3 3 2 1 2 2 3 2 1 1 1 2 2 1 1 2 0 1 2 2 1 1 0 0 1 1 1 1 2 4 5 6 6 7 6 7 8 8 8 10 11 11 11 9 7 6 6 6 6 7 7 9 10 10 10 10 10 11 11 11 10 11 12 12 12 13
1 3 3 3 1 2 3 3 3 3 3 2 3 4 4 3 2 1 4 1 1 3 3 1 1 3 3 2 2 1 0 1 2 0 1 1 2 0 2 0 1 0 0 1 0 1 1 3 4 4 5 5 6 6 6 6 6 6 7 8 9 10 10 10 9 8 7 7 6 6 6 6 7 8 9 10 9 9 9 10 11 11 11 11 12 12 11
1 0 0 0 1 2 2 4 5 3 0 3 4 3 3 2 2 3 2 0 2 1 2 1 2 2 3 0 1 2 2 0 1 0 1 1 1 1 0 2 1 1 0 0 1 1 1 3 4 4 4 5 6 6 6 6 6 7 7 7 8 8 9 9 9 9 9 8 7 6 6 7 7 7 8 9 8 8 8 9 10 10 10 11 10 10 10
2 0 1 2 3 3 6 5 2 1 2 3 0 1 1 2 3 4 3 2 1 1 3 2 3 3 3 2 2 2 1 0 1 1 1 1 0 1 0 1 1 0 1 2 1 1 1 4 3 3 3 4 5 6 5 6 7 8 7 7 8 8 8 8 9 9 10 9 8 7 6 7 6 7 6 7 7 7 7 8 8 8 9 10 9 10 11
0 1 2 2 1 2 2 0 2 5 4 4 3 3 3 4 5 4 1 1 2 4 2 4 1 2 1 1 2 1 2 1 2 1 1 2 1 1 1 1 1 1 1 1 1 2 2 3 3 1 3 4 4 4 5 5 6 7 7 7 7 7 7 8 8 9 8 7 7 7 7 6 6 6 5 5 6 6 6 7 8 8 8 9 10 10 11
1 1 0 1 1 2 1 1 3 3 4 4 4 5 5 5 5 2 2 2 2 3 3 1 1 2 1 0 2 1 2 1 0 0 2 1 1 1 1 2 1 1 0 1 1 2 2 2 1 2 3 4 5 5 6 6 6 6 6 6 6 7 7 7 8 8 7 7 7 7 7 6 6 6 6 5 4 3 5 7 7 7 7 8 9 10 10
0 1 2 3 2 0 5 4 4 3 3 4 4 4 4 5 4 1 2 1 3 4 4 4 2 2 2 1 1 2 1 1 2 2 2 0 1 2 1 1 1 0 1 2 1 1 2 2 1 2 2 3 4 5 5 6 6 6 6 6 7 7 7 8 8 7 8 7 7 8 9 8 7 6 5 4 4 3 5 7 7 7 6 6 7 8 9
1 2 3 3 5 4 4 2 2 2 1 2 1 2 2 3 2 2 1 3 4 5 5 2 1 2 1 3 1 0 1 1 2 1 3 2 1 2 2 1 1 1 1 1 2 2 1 1 2 1 1 3 3 4 5 5 6 6 6 6 7 7 7 7 8 8 8 8 8 9 9 9 9 8 7 9 9 8 7 6 6 6 6 5 6 6 7
Wind_Direction
346 347 351 350 347 346 347 348 347 350 349 352 360 313 319 3 25 70 352 339 317 294 189 140 26 19 5 324 248 272 268 274 309 312 341 316 312 294 271 329 325 307 246 318 295 301 284 281 277 290 301 289 287 295 287 277 265 261 268 253 232 193 240 244 255 266 265 266 269 254 246 255 253 243 242 234 233 231 238 244 261 259 247 240 244 248 254
348 350 352 351 348 344 345 347 346 348 360 338 313 318 12 312 327 5 15 337 307 337 29 346 349 359 342 319 304 218 288 303 316 311 326 313 322 326 313 309 295 299 303 298 292 313 311 240 260 289 299 281 290 288 301 284 256 248 297 285 137 219 213 241 274 276 266 253 244 242 237 242 240 243 238 236 236 236 239 249 252 257 247 245 241 247 250
348 350 350 351 348 343 344 346 342 344 350 338 313 345 331 267 199 235 6 15 19 43 8 348 327 352 338 325 315 347 253 229 299 307 303 301 296 314 313 316 308 292 298 293 297 295 271 280 278 270 279 280 286 280 275 268 261 246 262 267 291 248 260 227 254 269 280 272 241 233 212 219 227 242 243 240 237 234 230 233 234 246 247 242 244 249 251
344 348 350 350 347 342 346 345 342 342 346 338 286 321 275 8 353 8 86 45 52 91 68 29 343 343 353 323 9 323 328 353 282 270 286 278 292 296 300 291 299 288 313 313 299 289 266 242 281 293 292 292 290 284 287 277 267 260 256 265 115 256 243 232 238 242 249 259 272 77 72 169 215 221 219 232 236 235 235 235 237 236 243 247 244 245 252
340 346 351 350 345 343 348 348 341 342 339 346 302 291 342 291 26 343 348 301 113 69 58 25 0 6 335 313 357 325 342 333 348 97 299 102 314 302 278 298 328 329 334 317 307 267 278 269 272 271 274 283 287 291 285 283 273 268 263 220 141 229 239 222 231 238 245 250 260 259 243 240 235 235 221 217 228 236 234 228 232 236 269 257 242 237 243
333 344 350 350 347 345 350 350 343 342 336 334 288 350 354 1 99 22 43 308 354 344 28 1 339 330 295 308 327 307 331 350 352 321 258 316 307 317 327 294 316 321 327 303 294 297 292 277 262 267 271 297 302 296 289 278 273 241 242 173 183 229 257 233 220 245 245 256 264 269 262 241 244 248 246 226 215 221 225 233 241 239 236 244 250 252 256
328 341 348 350 348 346 353 354 346 343 336 325 316 336 69 66 117 133 339 277 18 335 319 309 308 288 312 294 300 321 332 338 2 341 314 316 305 335 313 317 328 326 322 303 274 285 305 301 245 276 294 290 310 293 303 270 225 222 232 178 179 219 244 244 201 251 259 256 259 264 263 263 257 246 238 239 226 217 220 229 232 232 237 248 266 268 264
319 336 344 348 346 346 358 358 351 343 336 316 43 24 348 31 344 25 227 271 286 301 302 300 283 278 58 303 17 322 318 324 340 338 311 306 305 323 306 323 322 321 315 297 269 271 275 284 293 297 288 291 276 274 263 280 276 232 235 189 200 210 263 111 226 272 274 272 265 264 259 264 274 276 242 228 228 225 224 229 236 238 247 251 255 261 266
293 319 336 345 343 346 3 3 355 342 336 44 41 64 34 55 26 320 322 284 11 280 293 312 330 302 133 309 349 314 320 331 342 311 272 245 273 324 322 322 318 311 306 309 306 311 313 306 288 286 287 278 274 269 280 281 292 270 248 223 208 202 263 279 271 282 287 290 272 288 288 282 275 273 244 221 217 223 222 227 228 227 234 239 248 254 254
276 287 312 332 338 348 3 13 355 346 324 25 16 58 28 131 120 38 324 291 106 315 317 269 277 8 19 329 323 311 314 324 337 328 241 229 260 293 312 321 319 309 311 319 327 326 314 300 291 282 278 270 272 254 255 261 260 284 279 238 241 209 254 276 285 291 285 305 309 292 294 285 263 242 272 242 225 224 224 226 225 225 230 234 234 239 244
258 254 277 306 332 346 3 23 15 353 352 43 35 58 33 31 9 313 265 293 167 337 324 343 339 53 322 293 299 294 290 301 311 306 306 318 309 323 318 313 316 306 302 323 322 311 299 291 285 274 264 260 257 262 256 254 251 247 247 251 240 248 250 267 289 279 297 303 305 294 283 301 3 348 280 260 223 212 219 218 220 221 219 231 233 248 260
254 243 241 263 309 345 6 29 58 9 357 44 29 63 44 317 278 300 330 328 346 325 302 342 339 321 300 318 304 298 300 301 290 285 275 281 288 296 296 291 293 294 323 320 315 314 303 281 253 244 246 262 257 256 244 248 252 241 226 224 257 273 276 280 285 265 284 307 293 273 285 327 351 329 317 238 224 219 226 241 244 240 232 239 251 258 262
253 236 222 228 259 310 3 12 74 105 349 19 15 50 68 321 335 5 345 309 315 346 331 333 317 295 309 307 304 296 297 290 278 267 263 270 283 286 287 292 290 292 312 315 320 317 324 320 315 282 254 211 224 228 244 249 259 254 239 225 238 263 275 282 255 260 270 275 284 295 334 27 247 26 28 40 253 232 247 259 256 253 251 243 245 248 254
251 234 216 210 224 254 305 16 52 134 180 328 44 51 63 293 324 14 357 323 310 337 312 291 304 338 331 325 313 307 298 288 288 261 258 248 262 282 298 293 298 306 307 317 306 315 327 343 15 24 39 44 175 193 15 303 264 272 293 231 213 251 270 252 279 241 294 308 306 293 307 308 41 37 52 7 212 211 215 246 250 242 243 243 250 255 258
251 234 211 203 204 207 231 227 143 141 166 270 39 98 118 135 309 336 42 287 306 303 266 331 340 329 320 318 327 317 318 326 321 317 264 249 261 263 288 303 308 306 308 315 323 338 337 333 12 18 16 13 6 333 314 356 351 230 290 318 205 222 244 288 288 287 281 302 314 320 343 4 17 7 341 344 295 250 213 229 271 250 250 257 258 255 254
252 237 211 201 201 197 204 195 188 158 167 235 311 88 120 121 208 249 284 332 316 324 45 356 322 312 312 316 321 310 329 326 340 311 303 175 256 303 304 313 313 305 300 290 275 324 357 11 5 21 19 355 326 320 342 333 338 42 192 239 254 207 222 265 277 289 299 311 316 323 323 351 231 286 298 305 290 267 116 199 259 252 216 223 227 240 244
256 239 214 195 197 197 199 204 205 176 164 227 322 294 128 173 256 305 300 263 237 262 311 319 307 286 287 309 307 308 357 336 342 350 329 337 335 318 317 335 308 303 323 346 2 360 15 20 11 9 34 6 348 336 291 335 331 333 340 328 326 219 244 259 266 268 294 312 311 345 0 330 339 315 314 337 194 139 152 244 347 176 210 232 254 281 313
260 242 215 195 194 193 197 200 203 189 169 195 292 305 203 170 220 267 239 258 296 282 276 253 294 305 330 348 306 318 298 290 291 283 266 292 302 339 332 331 339 3 350 8 0 16 18 23 10 360 0 4 328 298 353 316 320 339 329 329 335 1 343 284 305 315 316 289 324 285 243 227 311 324 336 336 17 181 233 335 313 319 318 321 329 321 311
262 243 213 192 190 191 194 199 206 197 182 191 260 245 184 199 187 230 270 273 260 270 54 229 275 271 287 300 268 280 294 305 305 298 314 322 35 333 303 303 301 345 359 7 6 19 10 19 11 349 335 351 3 352 311 341 344 318 328 355 336 359 337 307 339 348 341 334 305 320 316 167 286 337 325 331 301 316 339 310 299 306 316 330 323 303 308
262 244 212 191 188 190 192 199 204 199 203 174 202 276 319 216 236 242 245 271 263 274 286 277 258 265 278 280 286 276 260 239 236 273 314 310 351 336 311 105 25 357 2 6 27 16 8 4 359 331 351 339 1 292 320 354 319 317 322 324 335 354 321 354 350 331 323 345 351 358 4 6 348 336 315 26 343 336 310 309 312 328 325 330 336 340 337
260 244 211 188 186 188 192 197 201 200 198 176 200 278 278 149 208 229 250 261 277 295 291 144 266 273 275 264 260 266 266 272 302 300 311 310 337 327 12 0 341 350 358 353 348 11 7 340 347 340 307 302 321 327 354 328 342 39 345 337 354 1 332 356 329 14 327 353 6 12 320 308 345 360 355 335 341 326 325 328 320 330 334 340 339 337 335
256 240 209 190 186 190 190 195 197 201 196 176 205 239 276 120 236 260 264 255 254 248 271 306 303 286 273 265 263 256 253 257 264 279 288 293 299 318 326 311 323 341 356 338 340 347 10 345 300 338 329 321 317 350 340 7 12 338 353 357 19 2 327 306 302 315 334 355 329 310 317 349 355 351 347 337 337 338 334 331 334 332 339 340 336 338 339
249 231 204 192 191 191 190 193 196 198 198 179 206 235 275 313 308 160 257 270 262 266 273 274 269 265 258 252 244 236 240 245 257 258 254 266 287 254 282 313 2 32 302 10 6 328 326 330 316 312 303 0 348 342 17 53 5 349 353 350 272 297 344 329 297 345 336 98 6 344 342 3 358 359 358 354 354 352 349 348 345 347 340 337 338 340 343
246 227 203 195 191 191 190 191 195 197 191 185 212 238 267 305 310 290 270 262 275 308 282 197 275 292 253 202 187 211 225 234 234 242 239 242 262 284 199 209 298 275 345 82 29 334 329 313 305 318 319 355 336 23 8 14 25 336 339 1 351 345 1 358 13 332 343 28 352 351 338 352 360 351 349 359 358 347 347 348 347 342 343 341 342 341 350
239 222 200 194 190 189 193 194 195 194 190 190 210 235 260 275 259 285 300 317 320 331 312 290 274 300 327 298 284 263 240 236 225 224 220 218 232 254 318 48 12 347 338 354 321 309 303 308 318 334 326 358 352 34 21 14 29 359 11 360 340 358 350 342 355 355 14 352 352 335 325 349 5 0 353 354 347 341 343 350 351 356 354 353 344 349 359
229 210 194 190 188 189 192 193 193 188 188 195 224 238 231 285 312 291 278 268 256 268 299 316 351 162 262 292 288 298 280 217 219 213 217 218 220 236 267 274 266 233 281 302 302 293 311 278 287 283 310 6 13 27 31 37 17 13 28 10 344 307 314 19 328 320 322 236 357 354 326 322 3 360 356 350 347 339 344 352 360 3 359 354 355 3 4
215 199 188 183 181 188 192 192 188 182 188 194 221 241 253 279 262 259 258 282 308 238 225 283 318 320 344 312 304 270 217 213 218 222 223 220 223 229 236 251 270 285 290 300 289 285 267 284 291 333 3 19 339 43 17 46 38 25 22 5 331 346 22 348 333 9 19 5 353 354 360 350 345 348 346 344 343 341 349 359 2 358 354 348 352 357 6
204 191 185 180 180 185 186 182 180 177 187 203 233 256 268 277 278 261 238 234 252 314 316 304 307 312 313 275 261 230 238 237 235 233 232 226 220 223 226 238 251 262 267 281 266 220 273 303 5 359 300 7 332 47 51 61 47 39 27 16 7 15 11 12 20 14 7 346 348 354 342 331 335 324 335 346 338 344 351 358 353 347 353 352 2 7 12
196 186 183 180 179 181 183 179 173 171 185 213 245 259 270 264 256 246 249 228 250 287 292 288 279 267 300 19 304 274 240 228 240 240 240 232 217 213 221 224 234 238 247 256 278 283 277 287 315 320 11 357 313 23 17 33 36 34 21 12 15 19 7 23 18 7 22 349 346 353 352 350 330 329 334 346 347 353 347 342 344 346 359 357 9 12 15
187 182 179 177 175 177 180 180 176 166 183 212 236 258 241 162 205 226 189 205 208 255 302 333 321 340 341 303 279 283 291 278 257 239 235 230 215 208 213 209 223 227 232 244 267 280 329 309 279 274 301 289 344 30 33 38 43 40 24 17 17 16 23 28 22 21 3 345 338 350 6 344 326 325 346 352 350 354 350 344 348 352 357 6 8 10 19
179 175 175 174 171 172 177 177 176 158 174 205 222 251 245 211 133 141 167 184 193 268 305 256 271 300 293 220 271 297 318 322 302 291 241 211 212 207 199 196 209 200 214 238 246 268 298 270 316 102 101 356 330 44 38 32 37 31 22 14 11 16 15 21 20 24 12 3 352 344 353 345 326 330 3 2 357 0 358 349 347 353 357 3 10 11 17
171 170 172 167 165 169 172 174 168 169 194 204 219 297 3 21 85 141 167 206 215 274 320 318 299 236 317 259 222 297 308 315 296 233 160 167 158 167 173 205 189 193 231 251 270 272 247 349 292 22 37 47 276 43 42 40 32 10 5 12 9 9 12 15 13 13 15 12 1 8 13 11 12 14 7 5 3 6 6 3 358 349 347 358 18 20 18
167 166 163 161 161 164 167 166 175 205 221 266 332 310 277 187 137 148 178 210 249 282 314 299 310 314 271 24 331 279 323 289 226 299 157 186 159 170 178 199 180 194 171 254 216 259 54 291 244 106 72 320 355 42 43 42 19 3 7 4 7 4 1 5 11 13 13 15 16 14 12 8 9 13 14 11 12 11 10 10 2 357 360 4 11 12 7
159 157 156 155 158 159 159 168 155 132 71 249 247 184 114 164 168 182 197 224 292 300 309 314 311 299 291 319 256 94 343 340 346 353 337 140 110 223 157 176 190 221 181 235 38 256 178 237 252 129 145 50 12 31 39 22 4 356 353 5 3 1 358 0 7 7 12 14 15 15 11 10 11 12 15 19 18 16 16 16 14 10 1 4 5 6 7
150 147 143 144 152 150 140 141 162 212 250 225 238 159 110 163 229 175 195 207 258 6 298 251 268 299 319 316 359 69 359 306 351 14 322 101 166 277 153 225 160 245 126 231 249 273 252 40 333 242 66 57 42 41 15 345 342 345 344 348 355 353 358 1 5 2 4 12 10 9 9 11 11 14 15 16 18 19 19 20 18 16 15 12 11 6 8
138 134 138 140 133 143 144 189 222 210 215 193 116 101 94 145 167 176 200 220 291 324 293 336 304 303 318 334 359 22 340 285 347 303 168 300 196 168 261 273 219 102 99 212 298 126 34 40 265 70 48 54 42 4 353 342 337 342 346 343 344 351 352 351 351 351 356 13 13 10 9 14 17 15 14 16 19 22 24 22 21 21 20 18 13 9 9
135 134 131 126 132 177 207 218 144 223 348 64 95 115 125 122 96 124 165 228 212 254 277 300 276 313 325 333 286 297 322 337 357 326 69 335 342 21 254 234 288 81 221 200 60 33 71 308 57 77 52 44 17 358 347 349 346 346 342 338 338 344 345 347 343 342 357 12 15 15 13 13 18 17 14 17 20 24 25 25 22 20 21 18 15 14 11
127 129 134 139 155 184 215 193 201 119 108 123 145 148 170 224 187 170 193 218 169 205 226 241 260 287 303 281 330 29 298 342 347 330 355 41 280 153 296 280 51 280 212 104 65 354 6 66 72 85 88 40 37 12 355 346 352 354 354 348 345 340 346 346 343 353 360 7 14 13 13 14 16 18 15 17 20 25 26 21 20 22 22 20 16 16 17
134 141 155 173 226 204 154 109 109 144 166 155 209 247 201 187 223 218 202 178 182 217 187 224 249 212 247 261 290 106 356 326 309 336 345 48 330 29 354 274 120 263 205 177 106 301 211 109 105 107 71 19 22 15 2 350 348 358 355 351 341 335 336 351 357 3 2 5 10 16 14 14 10 15 17 20 24 27 26 21 21 24 24 20 13 14 17
152 161 164 168 226 96 103 113 150 171 201 201 167 251 258 180 244 216 151 218 193 188 191 224 230 254 255 300 331 332 120 300 332 350 344 329 95 319 5 281 47 277 239 262 53 335 289 133 96 177 65 17 17 9 1 359 358 358 357 354 350 347 350 358 7 12 7 13 20 23 22 23 22 19 19 22 23 23 22 22 23 24 24 25 18 17 16
181 161 171 178 121 130 130 144 171 217 219 209 185 200 234 224 204 299 207 235 240 138 199 259 164 215 188 243 242 287 101 247 301 321 295 300 60 262 282 323 36 283 233 81 38 300 155 106 88 51 32 354 355 358 360 4 4 0 2 358 358 357 358 10 25 27 20 23 25 28 25 26 25 25 25 25 26 26 24 22 21 22 22 21 20 21 20
156 130 95 89 97 113 137 167 213 199 171 266 276 238 214 264 134 217 243 247 136 155 172 194 212 274 151 193 255 286 288 50 299 275 302 319 64 310 315 308 237 274 19 37 317 266 278 95 124 72 22 3 10 10 9 8 6 359 1 2 4 359 358 5 20 37 32 34 33 29 28 26 27 26 26 23 25 27 25 21 20 21 21 22 21 22 21
110 118 129 115 133 160 221 206 182 234 206 173 181 257 189 223 211 241 170 206 61 257 107 217 311 328 108 245 223 216 328 66 284 232 254 342 1 226 300 314 278 262 34 318 289 294 292 318 77 37 345 2 15 9 11 10 6 357 358 1 3 359 359 8 12 21 37 39 37 31 27 29 31 30 25 24 20 21 23 24 19 22 24 22 25 26 23
137 150 140 136 140 136 225 206 161 176 230 214 196 225 185 218 199 187 227 169 159 198 172 214 152 276 106 156 316 134 192 187 219 259 259 226 275 353 288 265 35 22 284 249 317 338 22 32 293 306 334 8 14 4 4 8 3 351 352 357 359 358 8 18 19 17 26 32 40 34 35 29 28 30 28 25 21 19 19 21 17 18 27 26 25 27 25
140 120 100 116 107 157 183 222 173 202 228 196 206 243 203 239 177 194 181 100 205 100 127 222 241 253 321 95 212 173 299 9 133 261 339 334 293 282 306 11 9 298 302 335 341 126 150 206 136 40 16 15 1 357 356 355 354 355 347 350 359 359 5 10 9 4 8 3 11 9 32 28 25 26 28 29 28 24 21 22 18 19 26 27 27 28 29
162 150 149 135 144 242 213 213 165 220 229 221 214 225 240 264 315 187 75 79 171 158 196 136 229 255 270 91 309 24 178 275 259 162 341 293 280 327 49 339 276 311 142 205 262 296 2 20 47 30 21 2 348 349 344 343 349 348 348 357 356 359 1 1 4 3 0 350 350 2 16 24 26 22 23 29 30 29 25 22 21 21 21 29 29 29 28
95 331 172 98 172 184 210 223 205 219 112 197 231 241 259 346 356 348 39 306 269 13 356 291 291 329 323 352 226 186 189 248 269 73 262 253 318 68 154 277 277 298 267 102 250 289 10 48 48 33 12 350 343 347 349 354 354 352 350 354 357 1 359 360 3 5 1 349 350 353 3 5 7 15 19 25 35 34 30 25 26 24 26 30 32 28 29
159 147 179 188 208 176 197 229 243 254 219 254 291 290 332 351 278 233 183 206 319 321 261 228 218 195 204 139 257 310 354 177 259 154 340 336 218 266 240 206 185 117 274 272 325 21 41 66 70 36 356 350 354 352 352 354 353 351 350 355 0 2 360 2 4 0 356 357 356 354 354 353 354 4 13 24 40 43 36 34 35 35 33 35 36 34 30
58 178 182 217 216 203 223 149 208 240 219 202 211 232 227 232 240 244 111 180 234 242 248 259 307 298 279 94 275 235 214 177 248 141 177 215 255 215 258 224 276 227 180 278 336 33 78 98 98 27 21 19 18 2 2 359 359 348 355 360 4 5 8 8 7 4 356 359 1 360 357 355 348 1 9 26 42 47 41 44 48 49 42 39 38 36 36
153 193 333 187 185 224 168 208 238 247 203 195 205 222 221 239 249 243 71 255 227 210 173 203 251 266 350 275 244 213 246 174 286 202 239 198 153 176 252 230 193 273 55 104 42 82 113 104 108 69 44 32 24 8 7 7 5 359 2 2 9 12 14 10 12 15 12 11 8 6 8 12 14 14 17 16 12 2 50 50 46 47 49 41 39 40 39
296 278 257 239 255 204 157 215 213 224 215 212 212 212 202 223 237 158 102 258 189 193 198 216 175 212 223 207 242 228 152 94 242 227 259 145 139 220 221 212 189 185 58 64 62 99 116 115 24 40 53 35 23 11 13 9 9 10 9 13 14 14 15 21 26 26 29 29 28 26 28 26 20 17 15 4 8 22 76 62 40 31 38 44 39 38 40
166 199 218 206 222 239 237 299 327 289 349 45 161 137 193 231 187 114 99 258 216 209 208 169 199 200 211 229 232 38 105 227 252 228 224 169 188 224 203 278 54 155 112 181 160 156 159 129 120 99 6 31 13 6 7 3 9 17 15 17 16 19 27 34 35 36 37 39 36 36 37 33 32 37 40 42 40 36 39 40 31 24 25 32 42 41 41